Starlink 6030

operational
NORAD ID: 56107 Int'l Des: 2023-046 Owner: SPXS Country: US Constellation: starlink
LEOCIRCULAR

Starlink 6030について

説明を読み込み中...

リアルタイム位置

3D地球を読み込み中...

次回通過

高度履歴

Altitude vs Time

uPlot chart will show altitude changes over time

軌道要素

1 56107U 23046Q 25303.98629810 -.00000125 00000-0 58370-5 0 9997
2 56107 43.0024 143.5098 0001058 270.8493 89.2228 15.02534418142552
Epoch: Oct 30, 2025 • Age: 18 hours

現在のステータス

高度 560.9 km
速度 7.59 km/s
衛星直下点 33.95°N, 116.84°W
打ち上げ日 Mar 29, 2023
運用期間 2.5 years
タイプ internet

技術仕様

分類 Payload
質量 305.00 kg
乾燥質量 290.00 kg
総質量 305.00 kg
長さ 0.20 m
直径 2.80 m
スパン 9.00 m
形状 Box + pan
製造者 SPXS
バスタイプ Starlink
フェーズステータス In Orbit
所有者/国 SPXS/US

大規模コンステレーション

Loading constellations...